RYR6216 EPKK-ENTO

Flight info

Callsign RYR6216
Flight time N/A
Altitude 36000
Route LUMVE L619 NUDRO/N0385F280 L619 ARMEX/N0424F340 L619 ADVAB L617 KOLOB DCT SABAK L997 XENTA Y43 REPKU
Aircraft B738/M-SDE2E3FGHIRWXY/LB1

Departure

Time N/A
Airport Kraków John Paul II International Airport (EPKK)

Arrival

Time 2026-05-05 10:14
Airport Sandefjord Airport, Torp (ENTO)
Time Latitude Longitude Altitude Speed Heading
2026-05-05 08:40 50.58926 18.55654 27674 ft 379 kts 306°
2026-05-05 08:40 50.60464 18.52257 28111 ft 381 kts 306°
2026-05-05 08:41 50.62007 18.48846 28532 ft 383 kts 306°
2026-05-05 08:41 50.63570 18.45384 28966 ft 384 kts 306°
2026-05-05 08:41 50.65142 18.41900 29358 ft 386 kts 306°
2026-05-05 08:41 50.66705 18.38434 29744 ft 388 kts 306°
2026-05-05 08:42 50.68290 18.34911 30128 ft 390 kts 306°
2026-05-05 08:42 50.69859 18.31412 30500 ft 392 kts 306°
2026-05-05 08:42 50.71444 18.27867 30869 ft 394 kts 306°
2026-05-05 08:42 50.73035 18.24307 31223 ft 396 kts 306°
2026-05-05 08:43 50.74678 18.20729 31578 ft 397 kts 308°
2026-05-05 08:43 50.76339 18.17278 31934 ft 399 kts 308°
2026-05-05 08:43 50.78060 18.13724 32273 ft 400 kts 308°
2026-05-05 08:43 50.79751 18.10223 32657 ft 400 kts 309°
2026-05-05 08:44 50.81433 18.06732 33099 ft 399 kts 309°
2026-05-05 08:44 50.83133 18.03192 33552 ft 397 kts 309°
2026-05-05 08:44 50.84804 17.99707 33977 ft 395 kts 309°
2026-05-05 08:44 50.86469 17.96235 34358 ft 394 kts 309°
2026-05-05 08:45 50.88149 17.92725 34752 ft 393 kts 309°
2026-05-05 08:45 50.89805 17.89264 35048 ft 394 kts 309°
2026-05-05 08:45 50.91472 17.85775 35324 ft 396 kts 308°
2026-05-05 08:45 50.93142 17.82276 35587 ft 397 kts 308°
2026-05-05 08:46 50.94828 17.78735 35820 ft 399 kts 308°
2026-05-05 08:46 50.98215 17.71597 35856 ft 404 kts 307°
2026-05-05 08:47 51.01614 17.64404 35858 ft 406 kts 307°
2026-05-05 08:47 51.05046 17.57118 35858 ft 411 kts 307°
2026-05-05 08:48 51.08498 17.49758 35857 ft 412 kts 307°
2026-05-05 08:48 51.11945 17.42396 35858 ft 410 kts 307°
2026-05-05 08:49 51.15614 17.35370 35858 ft 411 kts 316°
2026-05-05 08:49 51.20404 17.30328 35862 ft 415 kts 334°
2026-05-05 08:50 51.25820 17.26902 35857 ft 416 kts 336°
2026-05-05 08:50 51.31278 17.23581 35857 ft 416 kts 336°
2026-05-05 08:51 51.36709 17.20266 35858 ft 416 kts 336°
2026-05-05 08:51 51.42144 17.16939 35858 ft 416 kts 336°
2026-05-05 08:52 51.47591 17.13595 35857 ft 416 kts 336°
2026-05-05 08:52 51.53042 17.10241 35858 ft 416 kts 336°
2026-05-05 08:53 51.58492 17.06880 35858 ft 416 kts 336°
2026-05-05 08:53 51.63920 17.03523 35857 ft 416 kts 336°
2026-05-05 08:54 51.69341 17.00165 35858 ft 414 kts 336°
2026-05-05 08:54 51.74695 16.96840 35867 ft 410 kts 336°
2026-05-05 08:55 51.80058 16.93499 35876 ft 407 kts 336°
2026-05-05 08:55 51.85357 16.90188 35885 ft 405 kts 335°
2026-05-05 08:56 51.90642 16.86877 35885 ft 402 kts 335°
2026-05-05 08:56 51.95885 16.83585 35885 ft 399 kts 335°
2026-05-05 08:57 52.01094 16.80305 35885 ft 397 kts 335°
2026-05-05 08:57 52.06250 16.77047 35885 ft 395 kts 335°
2026-05-05 08:58 52.11416 16.73774 35885 ft 397 kts 335°
2026-05-05 08:58 52.16573 16.70533 35885 ft 397 kts 335°
2026-05-05 08:59 52.21764 16.67304 35885 ft 397 kts 335°
2026-05-05 08:59 52.26983 16.64046 35885 ft 396 kts 335°
2026-05-05 09:00 52.32164 16.60803 35885 ft 396 kts 335°
2026-05-05 09:00 52.37358 16.57544 35885 ft 397 kts 335°
2026-05-05 09:01 52.42524 16.54294 35885 ft 397 kts 335°
2026-05-05 09:01 52.47734 16.51007 35885 ft 397 kts 335°
2026-05-05 09:02 52.52928 16.47721 35885 ft 397 kts 335°
2026-05-05 09:02 52.58109 16.44433 35885 ft 397 kts 335°
2026-05-05 09:03 52.63274 16.41146 35885 ft 397 kts 335°
2026-05-05 09:03 52.68473 16.37829 35885 ft 397 kts 335°
2026-05-05 09:04 52.73634 16.34527 35885 ft 397 kts 334°
2026-05-05 09:04 52.78796 16.31205 35885 ft 396 kts 334°
2026-05-05 09:05 52.83997 16.27853 35885 ft 396 kts 334°
2026-05-05 09:05 52.89155 16.24524 35885 ft 396 kts 334°
2026-05-05 09:06 52.94342 16.21171 35885 ft 396 kts 334°
2026-05-05 09:06 52.99516 16.17823 35884 ft 400 kts 334°
2026-05-05 09:07 53.04802 16.14390 35886 ft 412 kts 334°
2026-05-05 09:07 53.10255 16.10831 35885 ft 423 kts 334°
2026-05-05 09:08 53.15814 16.07197 35885 ft 428 kts 334°
2026-05-05 09:08 53.21375 16.03562 35888 ft 424 kts 334°
2026-05-05 09:09 53.26899 15.99938 35899 ft 424 kts 334°
2026-05-05 09:09 53.32409 15.96309 35915 ft 425 kts 334°
2026-05-05 09:10 53.37954 15.92649 35929 ft 425 kts 334°
2026-05-05 09:10 53.43488 15.88985 35937 ft 425 kts 334°
2026-05-05 09:11 53.49020 15.85314 35939 ft 425 kts 334°
2026-05-05 09:11 53.54531 15.81645 35939 ft 425 kts 334°
2026-05-05 09:12 53.60068 15.77948 35939 ft 425 kts 334°
2026-05-05 09:12 53.65608 15.74240 35939 ft 425 kts 334°
2026-05-05 09:13 53.71132 15.70531 35939 ft 425 kts 334°
2026-05-05 09:13 53.76631 15.66829 35939 ft 425 kts 334°
2026-05-05 09:14 53.82169 15.63089 35939 ft 425 kts 334°
2026-05-05 09:14 53.87682 15.59356 35938 ft 425 kts 334°
2026-05-05 09:15 53.93198 15.55611 35911 ft 424 kts 334°
2026-05-05 09:15 53.98741 15.51837 35912 ft 425 kts 334°
2026-05-05 09:16 54.04256 15.48070 35912 ft 425 kts 334°
2026-05-05 09:16 54.09769 15.44295 35912 ft 425 kts 334°
2026-05-05 09:17 54.15299 15.40496 35912 ft 425 kts 334°
2026-05-05 09:17 54.20811 15.36700 35912 ft 425 kts 334°
2026-05-05 09:18 54.26299 15.32906 35913 ft 425 kts 334°
2026-05-05 09:18 54.31788 15.29099 35922 ft 424 kts 334°
2026-05-05 09:19 54.37225 15.25309 35932 ft 424 kts 334°
2026-05-05 09:19 54.42717 15.21521 35939 ft 425 kts 334°
2026-05-05 09:20 54.48224 15.17792 35939 ft 425 kts 334°
2026-05-05 09:20 54.53696 15.14072 35939 ft 425 kts 334°
2026-05-05 09:21 54.59190 15.10323 35939 ft 424 kts 334°
2026-05-05 09:21 54.64714 15.06546 35939 ft 422 kts 334°
2026-05-05 09:22 54.70211 15.02773 35939 ft 420 kts 334°
2026-05-05 09:22 54.75696 14.98995 35939 ft 418 kts 334°
2026-05-05 09:23 54.81166 14.95212 35939 ft 416 kts 333°
2026-05-05 09:23 54.86423 14.90812 35939 ft 411 kts 328°
2026-05-05 09:24 54.91525 14.86234 35938 ft 410 kts 328°
2026-05-05 09:24 54.96693 14.81593 35940 ft 419 kts 328°
2026-05-05 09:25 55.01994 14.76816 35938 ft 428 kts 327°
2026-05-05 09:25 55.07391 14.71940 35938 ft 432 kts 327°
2026-05-05 09:26 55.12768 14.67073 35938 ft 429 kts 327°
2026-05-05 09:26 55.18137 14.62200 35939 ft 429 kts 327°
2026-05-05 09:27 55.23482 14.57334 35939 ft 429 kts 327°
2026-05-05 09:27 55.28849 14.52433 35939 ft 430 kts 327°
2026-05-05 09:28 55.34234 14.47503 35939 ft 430 kts 327°
2026-05-05 09:28 55.39599 14.42577 35939 ft 429 kts 327°
2026-05-05 09:29 55.44950 14.37647 35939 ft 429 kts 327°
2026-05-05 09:29 55.50251 14.32747 35939 ft 429 kts 327°
2026-05-05 09:30 55.55616 14.27771 35939 ft 429 kts 327°
2026-05-05 09:30 55.60941 14.22818 35939 ft 429 kts 327°
2026-05-05 09:31 55.66265 14.17851 35939 ft 429 kts 327°
2026-05-05 09:31 55.71608 14.12853 35939 ft 429 kts 327°
2026-05-05 09:32 55.76942 14.07847 35939 ft 429 kts 327°
2026-05-05 09:32 55.82286 14.02817 35939 ft 429 kts 327°
2026-05-05 09:33 55.87613 13.97787 35939 ft 429 kts 327°
2026-05-05 09:33 55.92931 13.92750 35939 ft 429 kts 327°
2026-05-05 09:34 55.98253 13.87693 35939 ft 429 kts 327°
2026-05-05 09:34 56.03616 13.82582 35939 ft 429 kts 327°
2026-05-05 09:35 56.08939 13.77492 35939 ft 429 kts 327°
2026-05-05 09:35 56.16915 13.69837 35939 ft 429 kts 327°
2026-05-05 09:36 56.22207 13.64737 35939 ft 429 kts 327°
2026-05-05 09:36 56.27478 13.59641 35939 ft 429 kts 327°
2026-05-05 09:37 56.32751 13.54527 35939 ft 429 kts 327°
2026-05-05 09:37 56.38017 13.49405 35939 ft 429 kts 327°
2026-05-05 09:38 56.43305 13.44244 35939 ft 429 kts 327°
2026-05-05 09:38 56.48588 13.39072 35939 ft 429 kts 327°
2026-05-05 09:39 56.53864 13.33891 35939 ft 429 kts 326°
2026-05-05 09:39 56.59098 13.28730 35939 ft 428 kts 326°
2026-05-05 09:40 56.64368 13.23518 35939 ft 428 kts 326°
2026-05-05 09:40 56.69649 13.18280 35939 ft 428 kts 326°
2026-05-05 09:41 56.74896 13.13057 35939 ft 427 kts 326°
2026-05-05 09:41 56.80139 13.07823 35939 ft 426 kts 326°
2026-05-05 09:42 56.85377 13.02577 35939 ft 425 kts 326°
2026-05-05 09:42 56.90581 12.97351 35939 ft 425 kts 326°
2026-05-05 09:43 56.95791 12.92103 35939 ft 424 kts 326°
2026-05-05 09:43 57.01005 12.86839 35939 ft 427 kts 326°
2026-05-05 09:44 57.06292 12.81480 35939 ft 432 kts 326°
2026-05-05 09:44 57.11578 12.76101 35939 ft 437 kts 326°
2026-05-05 09:45 57.16937 12.70628 35932 ft 438 kts 326°
2026-05-05 09:45 57.22293 12.65143 35923 ft 437 kts 326°
2026-05-05 09:46 57.27636 12.59652 35915 ft 436 kts 326°
2026-05-05 09:46 57.32999 12.54121 35912 ft 437 kts 326°
2026-05-05 09:47 57.38312 12.48624 35912 ft 437 kts 326°
2026-05-05 09:47 57.43668 12.43065 35912 ft 437 kts 326°
2026-05-05 09:48 57.48951 12.37563 35912 ft 437 kts 326°
2026-05-05 09:48 57.54279 12.31995 35911 ft 436 kts 325°
2026-05-05 09:49 57.59526 12.26492 35912 ft 436 kts 325°
2026-05-05 09:49 57.64861 12.20879 35914 ft 436 kts 325°
2026-05-05 09:50 57.70154 12.15291 35920 ft 436 kts 325°
2026-05-05 09:50 57.75438 12.09694 35926 ft 436 kts 325°
2026-05-05 09:51 57.80735 12.04065 35933 ft 436 kts 325°
2026-05-05 09:51 57.86000 11.98457 35472 ft 428 kts 325°
2026-05-05 09:52 57.88589 11.95690 34622 ft 432 kts 325°
2026-05-05 09:52 57.91200 11.92891 33843 ft 434 kts 325°
2026-05-05 09:52 57.93844 11.90053 33061 ft 435 kts 325°
2026-05-05 09:52 57.96532 11.87158 31900 ft 444 kts 325°
2026-05-05 09:53 57.99216 11.84262 30808 ft 450 kts 326°
2026-05-05 09:53 58.01976 11.81282 29739 ft 454 kts 326°
2026-05-05 09:53 58.04733 11.78305 28862 ft 453 kts 326°
2026-05-05 09:53 58.07440 11.75380 28163 ft 447 kts 326°
2026-05-05 09:54 58.10142 11.72456 27521 ft 440 kts 326°
2026-05-05 09:54 58.12791 11.69585 26893 ft 434 kts 326°
2026-05-05 09:54 58.15462 11.66974 26195 ft 432 kts 331°
2026-05-05 09:54 58.18265 11.64753 25532 ft 430 kts 337°
2026-05-05 09:55 58.21193 11.63304 24811 ft 431 kts 345°
2026-05-05 09:55 58.24142 11.62317 24174 ft 427 kts 347°
2026-05-05 09:55 58.27053 11.61411 23574 ft 421 kts 347°
2026-05-05 09:55 58.29957 11.60512 22976 ft 415 kts 347°
2026-05-05 09:56 58.32796 11.59633 22391 ft 410 kts 347°
2026-05-05 09:56 58.35614 11.58759 21809 ft 405 kts 347°
2026-05-05 09:56 58.38394 11.57896 21234 ft 400 kts 347°
2026-05-05 09:56 58.41131 11.57046 20668 ft 395 kts 347°
2026-05-05 09:57 58.43852 11.56199 20099 ft 391 kts 347°
2026-05-05 09:57 58.46544 11.55360 19531 ft 387 kts 347°
2026-05-05 09:57 58.49199 11.54532 18968 ft 383 kts 347°
2026-05-05 09:57 58.51756 11.53733 18488 ft 377 kts 347°
2026-05-05 09:58 58.54311 11.52936 18038 ft 371 kts 347°
2026-05-05 09:58 58.56868 11.52135 17475 ft 369 kts 347°
2026-05-05 09:58 58.59416 11.51334 16928 ft 366 kts 347°
2026-05-05 09:58 58.61916 11.50549 16393 ft 363 kts 347°
2026-05-05 09:59 58.64411 11.49623 15846 ft 358 kts 341°
2026-05-05 09:59 58.66710 11.47793 15311 ft 348 kts 326°
2026-05-05 09:59 58.68558 11.44899 14793 ft 338 kts 308°
2026-05-05 09:59 58.69888 11.41115 14247 ft 336 kts 293°
2026-05-05 10:00 58.70700 11.36899 13684 ft 331 kts 285°
2026-05-05 10:00 58.71483 11.32749 12937 ft 336 kts 288°
2026-05-05 10:00 58.72383 11.28545 12308 ft 334 kts 289°
2026-05-05 10:00 58.73277 11.24359 11760 ft 330 kts 289°
2026-05-05 10:01 58.74142 11.20241 11223 ft 326 kts 289°
2026-05-05 10:01 58.74983 11.16199 10713 ft 321 kts 289°
2026-05-05 10:01 58.75809 11.12210 10415 ft 310 kts 289°
2026-05-05 10:01 58.76595 11.08404 10273 ft 296 kts 289°
2026-05-05 10:02 58.77345 11.04758 10154 ft 282 kts 288°
2026-05-05 10:02 58.78067 11.01234 9927 ft 275 kts 288°
2026-05-05 10:02 58.78769 10.97788 9566 ft 273 kts 288°
2026-05-05 10:02 58.79464 10.94367 9197 ft 271 kts 288°
2026-05-05 10:03 58.80153 10.90976 8843 ft 268 kts 289°
2026-05-05 10:03 58.80840 10.87590 8491 ft 266 kts 289°
2026-05-05 10:03 58.81526 10.84219 8142 ft 263 kts 289°
2026-05-05 10:03 58.82201 10.80895 7798 ft 261 kts 288°
2026-05-05 10:04 58.82853 10.77579 7459 ft 258 kts 289°
2026-05-05 10:04 58.83492 10.74338 7120 ft 256 kts 290°
2026-05-05 10:04 58.84152 10.71087 6784 ft 254 kts 291°
2026-05-05 10:04 58.84796 10.67930 6489 ft 250 kts 291°
2026-05-05 10:05 58.85420 10.64780 6218 ft 246 kts 291°
2026-05-05 10:05 58.86043 10.61673 5890 ft 245 kts 292°
2026-05-05 10:05 58.86670 10.58581 5571 ft 243 kts 292°
2026-05-05 10:05 58.87289 10.55513 5254 ft 242 kts 292°
2026-05-05 10:06 58.87909 10.52439 4939 ft 241 kts 292°
2026-05-05 10:06 58.88519 10.49382 4627 ft 239 kts 292°
2026-05-05 10:06 58.89124 10.46344 4324 ft 245 kts 292°
2026-05-05 10:06 58.89788 10.43232 3985 ft 245 kts 300°
2026-05-05 10:07 58.90693 10.40459 3824 ft 233 kts 306°
2026-05-05 10:07 58.91576 10.38003 3761 ft 211 kts 306°
2026-05-05 10:07 58.92388 10.35729 3647 ft 192 kts 306°
2026-05-05 10:07 58.93109 10.33693 3588 ft 173 kts 306°
2026-05-05 10:08 58.93773 10.31810 3545 ft 163 kts 306°
2026-05-05 10:08 58.94418 10.29974 3487 ft 162 kts 306°
2026-05-05 10:08 58.95050 10.28175 3429 ft 161 kts 306°
2026-05-05 10:08 58.95847 10.26602 3339 ft 161 kts 332°
2026-05-05 10:09 58.96940 10.26243 3308 ft 159 kts
2026-05-05 10:09 58.98066 10.26312 3262 ft 162 kts 359°
2026-05-05 10:09 58.99187 10.26300 3179 ft 159 kts 358°
2026-05-05 10:09 59.00311 10.26278 3150 ft 159 kts 358°
2026-05-05 10:10 59.01432 10.26253 3100 ft 160 kts 358°
2026-05-05 10:10 59.02551 10.26228 3046 ft 159 kts 358°
2026-05-05 10:10 59.03643 10.26203 2998 ft 159 kts 358°
2026-05-05 10:10 59.04775 10.26177 2823 ft 162 kts 358°
2026-05-05 10:11 59.05885 10.26152 2601 ft 158 kts 358°
2026-05-05 10:11 59.06982 10.26127 2418 ft 157 kts 358°
2026-05-05 10:11 59.08092 10.26102 2194 ft 157 kts 359°
2026-05-05 10:11 59.09176 10.26078 1971 ft 157 kts 359°
2026-05-05 10:12 59.10209 10.26054 1746 ft 148 kts 359°
2026-05-05 10:12 59.11230 10.26031 1564 ft 148 kts 359°
2026-05-05 10:12 59.12249 10.26008 1368 ft 149 kts 359°
2026-05-05 10:12 59.13284 10.25985 1183 ft 145 kts 359°
2026-05-05 10:13 59.14245 10.25963 971 ft 135 kts 359°
2026-05-05 10:13 59.15176 10.25942 800 ft 136 kts 359°
2026-05-05 10:13 59.16129 10.25920 601 ft 137 kts 359°
2026-05-05 10:13 59.17107 10.25898 418 ft 137 kts 359°
2026-05-05 10:14 59.18075 10.25873 296 ft 131 kts 359°
2026-05-05 10:14 59.18824 10.25860 295 ft 84 kts 360°
2026-05-05 10:14 59.19264 10.25849 295 ft 47 kts 359°
2026-05-05 10:14 59.19572 10.25844 295 ft 34 kts
2026-05-05 10:15 59.19735 10.25839 295 ft 20 kts 356°
2026-05-05 10:15 59.19850 10.25905 295 ft 14 kts 81°
2026-05-05 10:15 59.19797 10.26077 295 ft 15 kts 134°
2026-05-05 10:15 59.19714 10.26203 295 ft 14 kts 168°
2026-05-05 10:16 59.19529 10.26216 295 ft 42 kts 180°
2026-05-05 10:16 59.19272 10.26222 295 ft 31 kts 178°
2026-05-05 10:16 59.19075 10.26228 295 ft 25 kts 179°
2026-05-05 10:16 59.18912 10.26231 295 ft 21 kts 179°
2026-05-05 10:17 59.18757 10.26235 295 ft 24 kts 179°
2026-05-05 10:17 59.18600 10.26239 295 ft 19 kts 177°
2026-05-05 10:17 59.18457 10.26244 295 ft 22 kts 178°
2026-05-05 10:17 59.18287 10.26200 295 ft 20 kts 229°
2026-05-05 10:18 59.18273 10.25967 295 ft 15 kts 266°
2026-05-05 10:18 59.18224 10.25775 295 ft 16 kts 226°
2026-05-05 10:18 59.18126 10.25586 295 ft 21 kts 225°
2026-05-05 10:18 59.18067 10.25412 295 ft 13 kts 267°
2026-05-05 10:19 59.18037 10.25255 295 ft 13 kts 194°
2026-05-05 10:19 59.18012 10.25253 295 ft 0 kts 178°
2026-05-05 10:19 59.18010 10.25253 295 ft 0 kts 178°